Tracking 29510 objects as of 15-Sep-2024
HD Live streaming from Space Station
objects crossing your sky now

STARLINK-3082

Track STARLINK-3082 now!
10-day predictions
STARLINK-3082 is classified as:


NORAD ID: 49162
Int'l Code: 2021-082AJ
Perigee: 510.9 km
Apogee: 515.1 km
Inclination: 70.0 °
Period: 94.7 minutes
Semi major axis: 6883 km
RCS: Unknown
Launch date: September 14, 2021
Source: United States (US)
Launch site: AIR FORCE WESTERN TEST RANGE (AFWTR)
Your satellite tracking list
Your tracking list is empty




NASA's NSSDC Master Catalog

Two Line Element Set (TLE):
1 49162U 21082AJ  24259.25002315  .01267577  00000-0  53589-1 0  9991
2 49162  69.9998 216.3302 0003090 270.3328  52.0515 15.19995716166215
Source of the keplerian elements: AFSPC